Location: Kerb�bon
(47.7970°N, 3.3487°W)
Time: 12:43:33
(UTC+00:00)

Cosmos 1500 - Pass Details

Date: 12 May 2021
Orbit: 497 x 518 km, 82.5° (Epoch: 18 June)

Event Time Altitude Azimuth Distance (km) Brightness Sun altitude
Rises 21:05:05 0° 349° (N) 2,613 7.8 -12.0°
Reaches altitude 10° 21:07:13 10° 349° (N) 1,720 6.8 -12.3°
Maximum altitude 21:10:59 83° 262° (W) 510 3.1 -12.7°
Enters shadow 21:13:56 16° 175° (S) 1,381 4.9 -13.0°
